PROXIMA I (43694 NORAD) Tracking and Keplerian Element Data

This shows tracking and keplerian element data for the satellite.

Feedback or suggestion? Click here.




ElementValue
Catalog43694
NamePROXIMA I
Epoch Orbit3810
Epoch Day200.81549835
Epoch Year2019
RAAN297.3838
Inclination85.0337
Eccentricity0.0021713
Argument of Perigee72.4802
Mean Anonmoly287.881
Mean Motion15.2142042
Decay Rate5.66E-06
L11 43694U 18088E 19200.81549835 .00000566 00000-0 23224-4 0 9990
L22 43694 85.0337 297.3838 0021713 72.4802 287.8810 15.21420420 38108

Live tracking and technical data element details for PROXIMA I (NORAD 43694). PROXIMA I can be tracked NOW for your location showing map with azimuth and elevation plus other details from your city location.

Track the satellite on the map from your city or location and see movement details for azimuth, elevation, latitude, longitude, range, height, and movement on the map or in text.







IsCatalogInMostPopularTable: catalog: 43694, numindb: 173
Update: records affected: 1



GetName: 43694 PROXIMA I

Hit Count: updated at: Sat, 20 Jul 2019 23:04:39 GMT